Location: Sternwarte Radebeul
(51.1160°N, 13.6224°E)
Time: 22:36:44
(UTC+01:00)

ISS - Pass Details

Date: 26 January 2020
Orbit: 415 x 423 km, 51.6° (Epoch: 25 February)

Event Time Altitude Azimuth Distance (km) Brightness Sun altitude
Rises 19:58:52 0° 272° (W) 2,379 1.3 -30.2°
Reaches altitude 10° 20:00:58 10° 274° (W) 1,513 0.0 -30.5°
Enters shadow 20:01:34 14° 275° (W) 1,277 -0.5 -30.6°
